TimeMDT,TemperatureF,Dew PointF,Humidity,Sea Level PressureIn,VisibilityMPH,Wind Direction,Wind SpeedMPH,Gust SpeedMPH,PrecipitationIn,Events,Conditions,WindDirDegrees,DateUTC
12:55 AM,39.9,33.1,77,30.20,10.0,South,6.9,-,N/A,,Overcast,190,2012-10-10 06:55:00
1:55 AM,39.9,33.1,77,30.20,10.0,South,5.8,-,N/A,,Overcast,170,2012-10-10 07:55:00
2:55 AM,41.0,33.1,73,30.18,10.0,SSE,10.4,-,N/A,,Overcast,160,2012-10-10 08:55:00
3:55 AM,41.0,33.1,73,30.16,10.0,South,9.2,-,N/A,,Overcast,170,2012-10-10 09:55:00
4:55 AM,39.9,34.0,79,30.16,10.0,South,10.4,-,N/A,,Overcast,170,2012-10-10 10:55:00
5:55 AM,37.9,33.1,83,30.16,10.0,South,8.1,-,N/A,,Scattered Clouds,170,2012-10-10 11:55:00
6:55 AM,36.0,32.0,86,30.17,10.0,SSE,9.2,-,N/A,,Clear,160,2012-10-10 12:55:00
7:55 AM,39.9,35.1,83,30.15,10.0,South,11.5,-,N/A,,Clear,180,2012-10-10 13:55:00
8:55 AM,44.1,35.1,71,30.15,10.0,South,15.0,-,N/A,,Clear,190,2012-10-10 14:55:00
9:55 AM,50.0,36.0,59,30.15,10.0,South,18.4,25.3,N/A,,Clear,180,2012-10-10 15:55:00
10:55 AM,52.0,35.1,53,30.14,10.0,South,19.6,25.3,N/A,,Clear,190,2012-10-10 16:55:00
11:55 AM,55.0,35.1,47,30.09,10.0,South,16.1,24.2,N/A,,Clear,170,2012-10-10 17:55:00
12:55 PM,59.0,35.1,41,30.01,10.0,South,13.8,25.3,N/A,,Clear,170,2012-10-10 18:55:00
1:55 PM,59.0,34.0,39,29.98,10.0,South,16.1,23.0,N/A,,Clear,170,2012-10-10 19:55:00
2:55 PM,62.1,34.0,35,29.94,10.0,South,11.5,-,N/A,,Clear,180,2012-10-10 20:55:00
3:55 PM,61.0,33.1,35,29.93,10.0,South,13.8,-,N/A,,Clear,180,2012-10-10 21:55:00
4:55 PM,60.1,34.0,38,29.93,10.0,SSE,10.4,18.4,N/A,,Clear,160,2012-10-10 22:55:00
6:55 PM,51.1,32.0,48,29.97,10.0,SE,8.1,-,N/A,,Clear,130,2012-10-11 00:55:00
7:55 PM,48.9,33.1,54,29.99,10.0,South,4.6,-,N/A,,Clear,190,2012-10-11 01:55:00
8:55 PM,51.1,33.1,50,29.96,10.0,SW,6.9,-,N/A,,Clear,220,2012-10-11 02:55:00
9:55 PM,44.1,30.9,60,29.97,10.0,Calm,Calm,-,N/A,,Clear,0,2012-10-11 03:55:00
10:55 PM,37.0,28.0,70,29.98,10.0,Calm,Calm,-,N/A,,Clear,0,2012-10-11 04:55:00